FW7817 Weather Reports


Display with metric or nautical units.
time (UTC)temp
F
wind
direction
speed
MPH
gust
MPH
rain 1hr
in
rain 24hr
in
rain mn
in
humidity
%
barometer
mb
20260906171331 92 256 1.0 6.0 0.00 0.00 0.00 58 1017.0
20260906170328 91 171 1.0 3.0 0.00 0.00 0.00 60 1017.2
20260906165829 91 172 1.0 3.0 0.00 0.00 0.00 58 1017.3
20260906165329 91 177 1.0 3.0 0.00 0.00 0.00 58 1017.3
20260906164329 91 180 1.0 4.0 0.00 0.00 0.00 59 1017.3
20260906163829 91 144 2.0 4.0 0.00 0.00 0.00 58 1017.4
20260906163329 91 136 2.0 4.0 0.00 0.00 0.00 58 1017.3
20260906162828 91 116 2.0 6.0 0.00 0.00 0.00 59 1017.3
20260906162329 91 155 2.0 6.0 0.00 0.00 0.00 59 1017.2
20260906161829 91 169 2.0 6.0 0.00 0.00 0.00 59 1017.2
20260906161328 91 137 1.0 5.0 0.00 0.00 0.00 59 1017.2
20260906160828 90 136 2.0 5.0 0.00 0.00 0.00 60 1017.2
20260906160329 90 159 2.0 5.0 0.00 0.00 0.00 59 1017.2
20260906155829 90 83 2.0 4.0 0.00 0.00 0.00 59 1017.1
20260906155328 90 144 2.0 4.0 0.00 0.00 0.00 61 1017.1
20260906154331 90 120 1.0 3.0 0.00 0.00 0.00 61 1017.0
20260906153331 90 126 1.0 3.0 0.00 0.00 0.00 61 1016.9
20260906152831 90 87 1.0 3.0 0.00 0.00 0.00 61 1016.8
20260906152328 90 115 1.0 3.0 0.00 0.00 0.00 61 1016.8
20260906151328 90 245 1.0 4.0 0.00 0.00 0.00 61 1016.8
20260906150822 90 74 1.0 4.0 0.00 0.00 0.00 62 1016.8
20260906145819 89 103 2.0 5.0 0.00 0.00 0.00 62 1016.8
20260906145318 89 117 2.0 5.0 0.00 0.00 0.00 63 1016.7
20260906144818 89 130 2.0 5.0 0.00 0.00 0.00 62 1016.7
20260906144319 89 146 2.0 5.0 0.00 0.00 0.00 63 1016.6
20260906143816 89 51 1.0 4.0 0.00 0.00 0.00 63 1016.8
20260906142814 87 132 1.0 6.0 0.00 0.00 0.00 65 1016.8
20260906142315 87 82 2.0 6.0 0.00 0.00 0.00 65 1016.8
20260906141813 86 86 2.0 7.0 0.00 0.00 0.00 66 1016.7
20260906141312 86 103 2.0 7.0 0.00 0.00 0.00 67 1016.7
20260906140812 85 92 2.0 5.0 0.00 0.00 0.00 68 1016.7
20260906140312 85 98 2.0 4.0 0.00 0.00 0.00 69 1016.7
20260906135813 84 78 1.0 3.0 0.00 0.00 0.00 70 1016.6
20260906135311 84 121 1.0 3.0 0.00 0.00 0.00 71 1016.6
20260906134810 83 84 1.0 3.0 0.00 0.00 0.00 72 1016.7
20260906134313 83 83 1.0 3.0 0.00 0.00 0.00 73 1016.6
20260906133807 82 86 1.0 3.0 0.00 0.00 0.00 74 1016.6
20260906133300 81 147 1.0 3.0 0.00 0.00 0.00 76 1016.5
20260906132754 81 178 1.0 3.0 0.00 0.00 0.00 78 1016.6
20260906132248 80 109 0.0 3.0 0.00 0.00 0.00 80 1016.5
20260906131742 79 114 0.0 2.0 0.00 0.00 0.00 82 1016.5
20260906130730 77 160 0.0 1.0 0.00 0.00 0.00 84 1016.5
20260906130224 77 160 0.0 1.0 0.00 0.00 0.00 85 1016.5
20260906125718 76 160 0.0 0.0 0.00 0.00 0.00 85 1016.3
20260906125213 76 160 0.0 0.0 0.00 0.00 0.00 85 1016.3
20260906124706 76 160 0.0 1.0 0.00 0.00 0.00 85 1016.2
20260906124200 76 160 0.0 1.0 0.00 0.00 0.00 85 1016.2
20260906123654 75 160 0.0 0.0 0.00 0.00 0.00 85 1016.0
20260906123149 75 160 0.0 0.0 0.00 0.00 0.00 85 1016.0
20260906122642 75 160 0.0 0.0 0.00 0.00 0.00 85 1016.0
20260906122136 75 160 0.0 0.0 0.00 0.00 0.00 85 1016.0
20260906121630 75 160 0.0 0.0 0.00 0.00 0.00 86 1016.0
20260906121125 75 160 0.0 0.0 0.00 0.00 0.00 86 1015.9
20260906120619 75 160 0.0 0.0 0.00 0.00 0.00 85 1015.7
20260906120113 75 160 0.0 0.0 0.00 0.00 0.00 85 1015.5
20260906115606 75 160 0.0 0.0 0.00 0.00 0.00 85 1015.5
20260906115100 75 160 0.0 0.0 0.00 0.00 0.00 85 1015.6
20260906114555 75 160 0.0 0.0 0.00 0.00 0.00 84 1015.5
20260906114048 75 160 0.0 0.0 0.00 0.00 0.00 84 1015.5
20260906113542 75 160 0.0 0.0 0.00 0.00 0.00 84 1015.6
20260906113036 75 160 0.0 0.0 0.00 0.00 0.00 83 1015.6
20260906112530 76 160 0.0 0.0 0.00 0.00 0.00 83 1015.5
20260906112024 76 160 0.0 0.0 0.00 0.00 0.00 83 1015.6
20260906111518 76 160 0.0 0.0 0.00 0.00 0.00 83 1015.5
20260906110506 76 160 0.0 0.0 0.00 0.00 0.00 82 1015.4
20260906110000 76 160 0.0 0.0 0.00 0.00 0.00 82 1015.4
20260906105454 76 160 0.0 0.0 0.00 0.00 0.00 81 1015.3
20260906104948 76 160 0.0 0.0 0.00 0.00 0.00 82 1015.3
20260906104442 76 160 0.0 0.0 0.00 0.00 0.00 81 1015.3
20260906103937 76 160 0.0 0.0 0.00 0.00 0.00 80 1015.4
20260906103430 77 160 0.0 0.0 0.00 0.00 0.00 80 1015.4
20260906102924 77 160 0.0 0.0 0.00 0.00 0.00 79 1015.3
20260906102418 77 160 0.0 0.0 0.00 0.00 0.00 78 1015.3
20260906101913 77 160 0.0 0.0 0.00 0.00 0.00 78 1015.4
20260906101406 77 160 0.0 0.0 0.00 0.00 0.00 78 1015.4
20260906100901 77 160 0.0 0.0 0.00 0.00 0.00 78 1015.5
20260906100354 78 160 0.0 0.0 0.00 0.00 0.00 78 1015.4
20260906095850 78 160 0.0 0.0 0.00 0.00 0.00 77 1015.4
20260906095342 78 160 0.0 0.0 0.00 0.00 0.00 77 1015.5
20260906094836 78 160 0.0 0.0 0.00 0.00 0.00 76 1015.4
20260906094330 78 160 0.0 0.0 0.00 0.00 0.00 76 1015.4
20260906093825 78 160 0.0 0.0 0.00 0.00 0.00 76 1015.3
20260906093318 79 160 0.0 0.0 0.00 0.00 0.00 76 1015.4
20260906092812 79 160 0.0 0.0 0.00 0.00 0.00 76 1015.3
20260906092306 79 160 0.0 0.0 0.00 0.00 0.00 75 1015.3
20260906090748 80 160 0.0 0.0 0.00 0.00 0.00 74 1015.2
20260906085737 80 160 0.0 0.0 0.00 0.00 0.00 73 1015.1
20260906085230 80 160 0.0 0.0 0.00 0.00 0.00 73 1015.0
20260906084724 80 160 0.0 0.0 0.00 0.00 0.00 73 1014.9
20260906084218 80 160 0.0 0.0 0.00 0.00 0.00 73 1014.9
20260906083205 81 160 0.0 2.0 0.00 0.00 0.00 72 1014.8
20260906082708 81 160 0.0 1.0 0.00 0.00 0.00 72 1014.9
20260906081706 81 160 0.0 0.0 0.00 0.00 0.00 71 1015.0
20260906081204 82 160 0.0 0.0 0.00 0.00 0.00 71 1015.0
20260906080703 82 160 0.0 1.0 0.00 0.00 0.00 71 1014.9
20260906080201 82 160 0.0 2.0 0.00 0.00 0.00 70 1014.9
20260906075702 82 160 0.0 2.0 0.00 0.00 0.00 70 1014.9
20260906075202 82 160 0.0 1.0 0.00 0.00 0.00 70 1014.8
20260906074701 82 160 0.0 1.0 0.00 0.00 0.00 69 1014.9
20260906074201 83 160 0.0 0.0 0.00 0.00 0.00 69 1014.9
20260906073702 83 160 0.0 0.0 0.00 0.00 0.00 69 1014.8
20260906073201 83 160 0.0 1.0 0.00 0.00 0.00 69 1014.9
20260906072701 83 160 0.0 2.0 0.00 0.00 0.00 69 1015.0
20260906072202 83 160 1.0 6.0 0.00 0.00 0.00 69 1014.9
20260906071702 83 160 1.0 6.0 0.00 0.00 0.00 69 1014.9
20260906070701 83 159 1.0 4.0 0.00 0.00 0.00 68 1014.8
20260906065659 84 156 1.0 4.0 0.00 0.00 0.00 68 1014.9
20260906064141 84 183 1.0 3.0 0.00 0.00 0.00 67 1015.1
20260906063635 84 154 1.0 3.0 0.00 0.00 0.00 67 1015.1
20260906063129 84 154 1.0 3.0 0.00 0.00 0.00 67 1015.1
20260906062623 85 154 1.0 3.0 0.00 0.00 0.00 67 1015.1
20260906062117 85 150 2.0 4.0 0.00 0.00 0.00 66 1015.2
20260906061610 85 146 2.0 5.0 0.00 0.00 0.00 66 1015.1
20260906061105 85 172 1.0 5.0 0.00 0.00 0.00 66 1015.2
20260906060052 85 97 2.0 5.0 0.00 0.00 0.00 66 1015.1
20260906055546 85 136 2.0 6.0 0.00 0.00 0.00 66 1015.1
20260906055041 85 142 2.0 6.0 0.00 0.00 0.00 67 1015.2
20260906054535 85 141 2.0 6.0 0.00 0.00 0.00 67 1015.2
20260906054029 85 169 1.0 6.0 0.00 0.00 0.00 67 1015.2
20260906053523 85 155 1.0 6.0 0.00 0.00 0.00 67 1015.2
20260906053017 85 138 1.0 6.0 0.00 0.00 0.00 67 1015.2
20260906052511 85 76 1.0 4.0 0.00 0.00 0.00 67 1015.2
20260906052005 85 107 1.0 7.0 0.00 0.00 0.00 67 1015.2
20260906051458 85 116 1.0 7.0 0.00 0.00 0.00 67 1015.2
20260906050952 85 114 1.0 4.0 0.00 0.00 0.00 67 1015.3
20260906050447 85 115 1.0 4.0 0.00 0.00 0.00 67 1015.2
20260906045939 85 104 1.0 3.0 0.00 0.00 0.00 67 1015.3
20260906045433 85 100 0.0 3.0 0.00 0.00 0.00 67 1015.3
20260906044927 85 103 1.0 3.0 0.00 0.00 0.00 66 1015.2
20260906044421 85 101 1.0 3.0 0.00 0.00 0.00 66 1015.3
20260906043916 85 136 0.0 3.0 0.00 0.00 0.00 66 1015.3
20260906043410 85 86 0.0 2.0 0.00 0.00 0.00 66 1015.3
20260906042904 85 86 1.0 2.0 0.00 0.00 0.00 66 1015.3
20260906042358 85 86 1.0 2.0 0.00 0.00 0.00 65 1015.3
20260906041853 85 87 1.0 3.0 0.00 0.00 0.00 65 1015.3
20260906041346 85 89 1.0 3.0 0.00 0.00 0.00 65 1015.2
20260906040840 85 84 1.0 3.0 0.00 0.00 0.00 65 1015.2
20260906040334 85 98 1.0 3.0 0.00 0.00 0.00 65 1015.1
20260906035828 85 102 1.0 2.0 0.00 0.00 0.00 65 1015.1
20260906035322 85 105 0.0 2.0 0.00 0.00 0.00 65 1015.1
20260906034815 85 105 0.0 2.0 0.00 0.00 0.00 65 1015.0
20260906034309 85 111 0.0 0.0 0.00 0.00 0.00 65 1014.9
20260906033808 85 110 0.0 0.0 0.00 0.00 0.00 65 1014.9
20260906033307 85 110 0.0 0.0 0.00 0.00 0.00 65 1014.8
20260906032806 85 111 0.0 0.0 0.00 0.00 0.00 65 1014.8
20260906032306 85 110 0.0 0.0 0.00 0.00 0.00 65 1014.8
20260906031802 85 111 0.0 0.0 0.00 0.00 0.00 65 1014.7
20260906031300 85 111 0.0 0.0 0.00 0.00 0.00 65 1014.6
20260906025759 85 111 0.0 2.0 0.00 0.00 0.00 65 1014.4
20260906025256 85 111 0.0 2.0 0.00 0.00 0.00 66 1014.4
20260906024754 85 111 1.0 3.0 0.00 0.00 0.00 66 1014.3
20260906024253 85 111 0.0 3.0 0.00 0.00 0.00 65 1014.2
20260906023253 86 204 0.0 0.0 0.00 0.00 0.00 64 1013.9
20260906022752 86 204 0.0 0.0 0.00 0.00 0.00 64 1013.9
20260906022251 86 204 0.0 0.0 0.00 0.00 0.00 63 1013.8
20260906021751 86 204 0.0 0.0 0.00 0.00 0.00 63 1013.6
20260906021247 86 204 0.0 0.0 0.00 0.00 0.00 63 1013.6
20260906020748 87 204 0.0 0.0 0.00 0.00 0.00 62 1013.7
20260906020247 87 204 0.0 0.0 0.00 0.00 0.00 62 1013.5
20260906015747 87 204 0.0 0.0 0.00 0.00 0.00 62 1013.5
20260906015248 87 204 0.0 0.0 0.00 0.00 0.00 62 1013.5
20260906014748 87 204 0.0 0.0 0.00 0.00 0.00 62 1013.4
20260906014247 87 204 0.0 0.0 0.00 0.00 0.00 62 1013.4
20260906013247 87 204 0.0 0.0 0.00 0.00 0.00 62 1013.4
20260906011748 88 204 0.0 0.0 0.00 0.00 0.00 59 1013.2
20260906011247 89 204 0.0 0.0 0.00 0.00 0.00 58 1013.2
20260906010748 89 204 0.0 0.0 0.00 0.00 0.00 57 1013.2
20260906010248 90 204 0.0 0.0 0.00 0.00 0.00 56 1013.0
20260906005748 90 204 0.0 0.0 0.00 0.00 0.00 55 1013.0
20260906005247 90 204 0.0 0.0 0.00 0.00 0.00 54 1013.0
20260906004745 91 204 0.0 0.0 0.00 0.00 0.00 54 1013.0
20260906004239 91 204 0.0 0.0 0.00 0.00 0.00 54 1013.0
20260906003739 91 204 0.0 0.0 0.00 0.00 0.00 53 1013.0
20260906003237 91 204 0.0 0.0 0.00 0.00 0.00 53 1013.2
20260906002737 92 204 0.0 0.0 0.00 0.00 0.00 53 1012.9
20260906002240 92 204 0.0 1.0 0.00 0.00 0.00 52 1012.9
20260906001738 92 204 0.0 2.0 0.00 0.00 0.00 51 1012.9
20260906000736 93 204 0.0 0.0 0.00 0.00 0.00 50 1013.0
20260906000234 93 204 0.0 0.0 0.00 0.00 0.00 50 1013.0
20260905235734 94 204 0.0 0.0 0.00 0.00 0.00 49 1013.2
20260905235233 94 204 0.0 0.0 0.00 0.00 0.00 49 1013.2
20260905234732 94 204 0.0 0.0 0.00 0.00 0.00 48 1013.2
20260905233729 95 204 0.0 0.0 0.00 0.00 0.00 47 1013.2
20260905233226 95 204 0.0 1.0 0.00 0.00 0.00 46 1013.3
20260905232724 96 204 0.0 1.0 0.00 0.00 0.00 47 1013.2
20260905232222 96 204 0.0 1.0 0.00 0.00 0.00 46 1013.2
20260905231722 96 204 0.0 1.0 0.00 0.00 0.00 45 1013.2
20260905230720 97 203 0.0 1.0 0.00 0.00 0.00 44 1013.0
20260905230219 97 203 0.0 4.0 0.00 0.00 0.00 44 1013.0
20260905225713 98 202 1.0 4.0 0.00 0.00 0.00 44 1013.0
20260905224701 98 132 2.0 5.0 0.00 0.00 0.00 43 1013.0
20260905224155 98 161 1.0 5.0 0.00 0.00 0.00 41 1012.9
20260905223648 99 140 1.0 4.0 0.00 0.00 0.00 42 1012.9
20260905223142 99 137 1.0 5.0 0.00 0.00 0.00 41 1013.2
20260905222636 99 137 1.0 5.0 0.00 0.00 0.00 42 1013.3
20260905222131 100 102 1.0 3.0 0.00 0.00 0.00 40 1013.3
20260905221624 100 264 1.0 3.0 0.00 0.00 0.00 40 1013.3
20260905221118 101 255 1.0 3.0 0.00 0.00 0.00 40 1013.3
20260905220613 100 145 1.0 4.0 0.00 0.00 0.00 40 1013.5
20260905215601 101 185 1.0 5.0 0.00 0.00 0.00 41 1013.4
20260905214551 100 196 2.0 5.0 0.00 0.00 0.00 42 1013.4
20260905214043 100 85 2.0 6.0 0.00 0.00 0.00 41 1013.5
20260905213537 100 84 2.0 6.0 0.00 0.00 0.00 40 1013.5
20260905213031 101 146 1.0 5.0 0.00 0.00 0.00 40 1013.4
20260905212525 100 257 1.0 4.0 0.00 0.00 0.00 41 1013.5
20260905212023 101 173 2.0 8.0 0.00 0.00 0.00 41 1013.6
20260905211523 100 116 3.0 9.0 0.00 0.00 0.00 41 1013.6
20260905211022 100 123 2.0 9.0 0.00 0.00 0.00 40 1013.6
20260905210521 101 144 1.0 5.0 0.00 0.00 0.00 40 1013.8
20260905210021 100 265 1.0 4.0 0.00 0.00 0.00 39 1013.8
20260905205521 101 239 2.0 5.0 0.00 0.00 0.00 40 1013.9
20260905205022 100 159 2.0 6.0 0.00 0.00 0.00 41 1014.0
20260905204521 100 81 1.0 6.0 0.00 0.00 0.00 40 1014.1
20260905204021 100 150 1.0 6.0 0.00 0.00 0.00 40 1014.1
20260905203518 100 258 2.0 6.0 0.00 0.00 0.00 42 1014.2
20260905203016 100 133 3.0 7.0 0.00 0.00 0.00 41 1014.2
20260905202516 100 161 3.0 7.0 0.00 0.00 0.00 41 1014.3
20260905202017 100 90 2.0 8.0 0.00 0.00 0.00 42 1014.3
20260905201017 100 88 3.0 9.0 0.00 0.00 0.00 42 1014.4
20260905200017 100 161 3.0 11.0 0.00 0.00 0.00 41 1014.6
20260905195517 100 169 2.0 11.0 0.00 0.00 0.00 41 1014.6
20260905195010 99 177 2.0 6.0 0.00 0.00 0.00 42 1014.6
20260905193958 100 126 4.0 10.0 0.00 0.00 0.00 42 1014.7
20260905192947 100 136 3.0 7.0 0.00 0.00 0.00 41 1014.8
20260905192441 100 123 3.0 7.0 0.00 0.00 0.00 42 1014.9
20260905191939 100 165 3.0 8.0 0.00 0.00 0.00 42 1014.9
20260905191439 100 140 2.0 8.0 0.00 0.00 0.00 42 1015.0
20260905190939 100 271 2.0 7.0 0.00 0.00 0.00 43 1015.1
20260905190439 100 167 2.0 7.0 0.00 0.00 0.00 43 1015.1
20260905185937 100 101 3.0 7.0 0.00 0.00 0.00 42 1015.0
20260905185437 100 163 3.0 9.0 0.00 0.00 0.00 42 1015.1
20260905184935 100 86 2.0 9.0 0.00 0.00 0.00 42 1015.0
20260905184435 100 155 1.0 6.0 0.00 0.00 0.00 44 1015.1
20260905183433 99 146 1.0 7.0 0.00 0.00 0.00 46 1015.3
20260905182933 98 245 1.0 7.0 0.00 0.00 0.00 48 1015.5
20260905182432 98 161 1.0 8.0 0.00 0.00 0.00 48 1015.7
20260905181933 98 150 2.0 8.0 0.00 0.00 0.00 48 1015.7
20260905180933 98 160 3.0 9.0 0.00 0.00 0.00 48 1015.8
20260905180433 99 78 3.0 9.0 0.00 0.00 0.00 45 1015.8
20260905175933 98 128 2.0 8.0 0.00 0.00 0.00 48 1015.9
20260905174433 98 153 2.0 8.0 0.00 0.00 0.00 47 1016.1
20260905173933 97 123 3.0 7.0 0.00 0.00 0.00 50 1016.1
20260905173432 97 145 2.0 7.0 0.00 0.00 0.00 50 1016.1
20260905172932 98 125 1.0 6.0 0.00 0.00 0.00 50 1016.3
20260905172433 97 158 2.0 6.0 0.00 0.00 0.00 52 1016.3